CXA001 KMYR-CYYZ

Flight info

Callsign CXA001
Flight time 1h 54m
Altitude 29000
Route 18/BUMMA RAANE EWESS RICCS OXMAN LINNG3/24L
Aircraft RJ1H/M-SDFGIRWY/LB1

Departure

Time 2026-05-09 15:08
Airport Myrtle Beach International Airport (KMYR)

Arrival

Time 2026-05-09 17:02
Airport Toronto Pearson International Airport (CYYZ)
Time Latitude Longitude Altitude Speed Heading
2026-05-09 14:37 33.68215 -78.92415 25 ft 0 kts 66°
2026-05-09 14:55 33.68213 -78.92421 35 ft 4 kts 66°
2026-05-09 14:56 33.68202 -78.92450 35 ft 4 kts 62°
2026-05-09 14:56 33.68189 -78.92473 35 ft 2 kts 44°
2026-05-09 14:56 33.68180 -78.92481 35 ft 2 kts 14°
2026-05-09 14:56 33.68168 -78.92481 35 ft 2 kts 353°
2026-05-09 14:57 33.68157 -78.92479 35 ft 2 kts 347°
2026-05-09 14:57 33.68153 -78.92478 35 ft 0 kts 347°
2026-05-09 15:01 33.68174 -78.92494 35 ft 5 kts 315°
2026-05-09 15:01 33.68208 -78.92529 35 ft 7 kts 328°
2026-05-09 15:01 33.68250 -78.92549 35 ft 7 kts 341°
2026-05-09 15:02 33.68305 -78.92567 34 ft 9 kts 347°
2026-05-09 15:02 33.68377 -78.92584 33 ft 11 kts 348°
2026-05-09 15:02 33.68455 -78.92603 33 ft 10 kts 349°
2026-05-09 15:02 33.68517 -78.92620 33 ft 8 kts 347°
2026-05-09 15:03 33.68570 -78.92632 33 ft 8 kts 349°
2026-05-09 15:03 33.68627 -78.92646 33 ft 9 kts 348°
2026-05-09 15:03 33.68694 -78.92663 31 ft 10 kts 348°
2026-05-09 15:03 33.68768 -78.92682 30 ft 11 kts 348°
2026-05-09 15:04 33.68841 -78.92700 31 ft 10 kts 348°
2026-05-09 15:04 33.68902 -78.92716 31 ft 9 kts 347°
2026-05-09 15:06 33.69288 -78.92876 33 ft 6 kts 262°
2026-05-09 15:06 33.69282 -78.92913 33 ft 3 kts 255°
2026-05-09 15:06 33.69275 -78.92946 33 ft 6 kts 257°
2026-05-09 15:06 33.69262 -78.93016 33 ft 9 kts 257°
2026-05-09 15:07 33.69249 -78.93084 33 ft 7 kts 257°
2026-05-09 15:07 33.69231 -78.93130 34 ft 5 kts 207°
2026-05-09 15:07 33.69163 -78.93127 35 ft 20 kts 169°
2026-05-09 15:07 33.68811 -78.93038 32 ft 84 kts 168°
2026-05-09 15:08 33.68061 -78.92852 31 ft 134 kts 168°
2026-05-09 15:08 33.65853 -78.92350 530 ft 181 kts 174°
2026-05-09 15:08 33.64630 -78.92025 952 ft 177 kts 168°
2026-05-09 15:09 33.63357 -78.91638 1174 ft 205 kts 168°
2026-05-09 15:10 33.56948 -78.93990 5080 ft 218 kts 320°
2026-05-09 15:11 33.58368 -78.94737 5744 ft 227 kts 335°
2026-05-09 15:11 33.59871 -78.95329 6435 ft 228 kts 336°
2026-05-09 15:11 33.61404 -78.95876 7104 ft 230 kts 337°
2026-05-09 15:11 33.62948 -78.96396 7791 ft 231 kts 338°
2026-05-09 15:12 33.64507 -78.96910 8489 ft 233 kts 338°
2026-05-09 15:12 33.66077 -78.97431 9234 ft 235 kts 337°
2026-05-09 15:12 33.67700 -78.97979 9741 ft 249 kts 336°
2026-05-09 15:12 33.69405 -78.98581 10166 ft 264 kts 336°
2026-05-09 15:13 33.71221 -78.99242 10522 ft 281 kts 336°
2026-05-09 15:13 33.73139 -78.99951 10864 ft 296 kts 336°
2026-05-09 15:13 33.75155 -79.00717 11170 ft 309 kts 335°
2026-05-09 15:13 33.77251 -79.01533 11428 ft 323 kts 336°
2026-05-09 15:14 33.79395 -79.02299 11821 ft 327 kts 336°
2026-05-09 15:14 33.81532 -79.03231 12312 ft 326 kts 330°
2026-05-09 15:14 33.83587 -79.04379 12765 ft 326 kts 327°
2026-05-09 15:14 33.85581 -79.05665 13208 ft 326 kts 324°
2026-05-09 15:15 33.87553 -79.07045 13638 ft 327 kts 322°
2026-05-09 15:15 33.88846 -79.07987 13893 ft 328 kts 322°
2026-05-09 15:15 33.91451 -79.09918 14370 ft 330 kts 321°
2026-05-09 15:15 33.93404 -79.11383 14760 ft 331 kts 321°
2026-05-09 15:16 33.95366 -79.12844 15134 ft 332 kts 322°
2026-05-09 15:16 33.97350 -79.14294 15513 ft 333 kts 322°
2026-05-09 15:16 33.99335 -79.15741 15914 ft 335 kts 322°
2026-05-09 15:16 34.01332 -79.17195 16265 ft 336 kts 322°
2026-05-09 15:17 34.03349 -79.18645 16604 ft 339 kts 326°
2026-05-09 15:17 34.05529 -79.19798 16941 ft 345 kts 332°
2026-05-09 15:17 34.07795 -79.20807 17261 ft 348 kts 333°
2026-05-09 15:17 34.10082 -79.21780 17606 ft 349 kts 333°
2026-05-09 15:18 34.12382 -79.22758 17948 ft 350 kts 333°
2026-05-09 15:18 34.14678 -79.23737 18288 ft 351 kts 333°
2026-05-09 15:18 34.16977 -79.24740 18557 ft 352 kts 332°
2026-05-09 15:18 34.19253 -79.25739 18833 ft 352 kts 332°
2026-05-09 15:19 34.21557 -79.26778 19113 ft 353 kts 331°
2026-05-09 15:19 34.23868 -79.27818 19392 ft 354 kts 331°
2026-05-09 15:19 34.26186 -79.28862 19677 ft 355 kts 331°
2026-05-09 15:19 34.28511 -79.29900 19960 ft 357 kts 331°
2026-05-09 15:20 34.30846 -79.30940 20228 ft 358 kts 331°
2026-05-09 15:20 34.35522 -79.33063 20765 ft 360 kts 330°
2026-05-09 15:20 34.37074 -79.33775 20954 ft 360 kts 330°
2026-05-09 15:21 34.39437 -79.34841 21220 ft 362 kts 331°
2026-05-09 15:21 34.41802 -79.35909 21480 ft 362 kts 330°
2026-05-09 15:21 34.44167 -79.36985 21739 ft 363 kts 330°
2026-05-09 15:21 34.46546 -79.38068 21899 ft 367 kts 330°
2026-05-09 15:22 34.48969 -79.39162 21906 ft 376 kts 331°
2026-05-09 15:22 34.51443 -79.40257 21944 ft 383 kts 331°
2026-05-09 15:22 34.53968 -79.41372 22083 ft 387 kts 331°
2026-05-09 15:22 34.56489 -79.42501 22363 ft 386 kts 330°
2026-05-09 15:23 34.59000 -79.43641 22657 ft 385 kts 330°
2026-05-09 15:23 34.61503 -79.44779 22969 ft 383 kts 330°
2026-05-09 15:23 34.63993 -79.45907 23276 ft 382 kts 330°
2026-05-09 15:23 34.66494 -79.47035 23583 ft 380 kts 330°
2026-05-09 15:24 34.68974 -79.48150 23823 ft 380 kts 330°
2026-05-09 15:24 34.71442 -79.49277 24041 ft 378 kts 329°
2026-05-09 15:24 34.73901 -79.50409 24273 ft 378 kts 329°
2026-05-09 15:24 34.76333 -79.51525 24505 ft 377 kts 329°
2026-05-09 15:25 34.78788 -79.52643 24737 ft 377 kts 329°
2026-05-09 15:25 34.81247 -79.53755 24972 ft 376 kts 329°
2026-05-09 15:25 34.83701 -79.54858 25215 ft 375 kts 329°
2026-05-09 15:26 34.88572 -79.57081 25728 ft 373 kts 328°
2026-05-09 15:26 34.90999 -79.58181 25951 ft 372 kts 328°
2026-05-09 15:26 34.93413 -79.59283 26220 ft 370 kts 327°
2026-05-09 15:26 34.95817 -79.60390 26452 ft 369 kts 327°
2026-05-09 15:27 34.98219 -79.61489 26709 ft 368 kts 327°
2026-05-09 15:27 35.00610 -79.62581 26929 ft 366 kts 327°
2026-05-09 15:27 35.02990 -79.63690 27124 ft 366 kts 327°
2026-05-09 15:27 35.05361 -79.64799 27312 ft 365 kts 326°
2026-05-09 15:28 35.07724 -79.65899 27503 ft 365 kts 327°
2026-05-09 15:28 35.10110 -79.66986 27683 ft 364 kts 326°
2026-05-09 15:28 35.12480 -79.68078 27877 ft 364 kts 326°
2026-05-09 15:28 35.14867 -79.69122 28051 ft 370 kts 331°
2026-05-09 15:29 35.17430 -79.69785 28186 ft 382 kts 338°
2026-05-09 15:29 35.20083 -79.70182 28368 ft 386 kts 341°
2026-05-09 15:29 35.22760 -79.70477 28540 ft 387 kts 341°
2026-05-09 15:29 35.25449 -79.70737 28744 ft 387 kts 342°
2026-05-09 15:30 35.28130 -79.71002 28927 ft 385 kts 341°
2026-05-09 15:30 35.30789 -79.71288 28969 ft 380 kts 341°
2026-05-09 15:30 35.35983 -79.71923 28975 ft 376 kts 340°
2026-05-09 15:31 35.41206 -79.72623 28987 ft 379 kts 340°
2026-05-09 15:31 35.46452 -79.73297 28992 ft 380 kts 340°
2026-05-09 15:32 35.51725 -79.73981 28992 ft 380 kts 340°
2026-05-09 15:32 35.56996 -79.74641 29001 ft 381 kts 341°
2026-05-09 15:33 35.62272 -79.75318 29004 ft 381 kts 341°
2026-05-09 15:33 35.67550 -79.75974 29002 ft 380 kts 341°
2026-05-09 15:34 35.72812 -79.76653 28997 ft 380 kts 341°
2026-05-09 15:34 35.78074 -79.77320 28999 ft 379 kts 341°
2026-05-09 15:35 35.83326 -79.78005 28995 ft 380 kts 341°
2026-05-09 15:35 35.88587 -79.78653 28983 ft 379 kts 341°
2026-05-09 15:36 35.93802 -79.79337 28976 ft 379 kts 341°
2026-05-09 15:36 35.99052 -79.80000 28974 ft 379 kts 341°
2026-05-09 15:37 36.04295 -79.80665 28974 ft 378 kts 341°
2026-05-09 15:37 36.09535 -79.81338 28975 ft 378 kts 341°
2026-05-09 15:38 36.14773 -79.82018 28981 ft 378 kts 341°
2026-05-09 15:38 36.20014 -79.82709 28976 ft 378 kts 341°
2026-05-09 15:39 36.25249 -79.83406 28978 ft 378 kts 341°
2026-05-09 15:39 36.30473 -79.84108 28981 ft 377 kts 341°
2026-05-09 15:40 36.35700 -79.84810 28978 ft 378 kts 342°
2026-05-09 15:40 36.40939 -79.85467 28978 ft 377 kts 341°
2026-05-09 15:41 36.46112 -79.86164 28983 ft 376 kts 341°
2026-05-09 15:41 36.51331 -79.86824 28982 ft 377 kts 342°
2026-05-09 15:42 36.56544 -79.87520 28975 ft 375 kts 341°
2026-05-09 15:42 36.61745 -79.88190 28986 ft 375 kts 342°
2026-05-09 15:43 36.66938 -79.88882 28983 ft 374 kts 342°
2026-05-09 15:43 36.72117 -79.89567 28985 ft 374 kts 341°
2026-05-09 15:44 36.77295 -79.90229 28985 ft 374 kts 341°
2026-05-09 15:44 36.82464 -79.90925 28982 ft 374 kts 342°
2026-05-09 15:45 36.87634 -79.91603 28975 ft 372 kts 341°
2026-05-09 15:45 36.92762 -79.92272 28970 ft 372 kts 341°
2026-05-09 15:46 36.97912 -79.92958 28958 ft 372 kts 342°
2026-05-09 15:46 37.03076 -79.93620 28957 ft 372 kts 341°
2026-05-09 15:47 37.08218 -79.94317 28963 ft 373 kts 342°
2026-05-09 15:47 37.13385 -79.94978 28970 ft 374 kts 342°
2026-05-09 15:48 37.18548 -79.95668 28976 ft 373 kts 341°
2026-05-09 15:48 37.23714 -79.96363 28970 ft 373 kts 342°
2026-05-09 15:49 37.28881 -79.97034 28966 ft 374 kts 342°
2026-05-09 15:49 37.34050 -79.97715 28966 ft 373 kts 341°
2026-05-09 15:50 37.39226 -79.98415 28961 ft 374 kts 342°
2026-05-09 15:50 37.44399 -79.99105 28945 ft 373 kts 342°
2026-05-09 15:51 37.49564 -79.99802 28957 ft 374 kts 342°
2026-05-09 15:51 37.54737 -80.00491 28962 ft 374 kts 342°
2026-05-09 15:52 37.62501 -80.01541 28923 ft 373 kts 342°
2026-05-09 15:53 37.67627 -80.02230 28929 ft 373 kts 342°
2026-05-09 15:53 37.72801 -80.02935 28967 ft 375 kts 342°
2026-05-09 15:54 37.77987 -80.03647 28972 ft 374 kts 342°
2026-05-09 15:54 37.83160 -80.04361 28955 ft 373 kts 342°
2026-05-09 15:55 37.88323 -80.05076 28967 ft 373 kts 342°
2026-05-09 15:55 37.93483 -80.05757 28967 ft 372 kts 342°
2026-05-09 15:56 37.98624 -80.06470 28958 ft 371 kts 342°
2026-05-09 15:56 38.03758 -80.07184 28955 ft 371 kts 342°
2026-05-09 15:57 38.08897 -80.07869 28940 ft 371 kts 342°
2026-05-09 15:57 38.14005 -80.08566 28943 ft 371 kts 342°
2026-05-09 15:58 38.19125 -80.09278 28932 ft 370 kts 342°
2026-05-09 15:58 38.24252 -80.09980 28937 ft 370 kts 342°
2026-05-09 15:59 38.29376 -80.10671 28924 ft 369 kts 342°
2026-05-09 15:59 38.34487 -80.11367 28923 ft 369 kts 342°
2026-05-09 16:00 38.39654 -80.11592 28950 ft 380 kts 350°
2026-05-09 16:00 38.44958 -80.11224 28934 ft 382 kts 352°
2026-05-09 16:01 38.50265 -80.10810 28929 ft 381 kts 351°
2026-05-09 16:01 38.55544 -80.10485 28932 ft 379 kts 350°
2026-05-09 16:02 38.60809 -80.10217 28875 ft 378 kts 350°
2026-05-09 16:02 38.67814 -80.09869 28918 ft 380 kts 350°
2026-05-09 16:03 38.73094 -80.09554 28892 ft 379 kts 350°
2026-05-09 16:03 38.78366 -80.09270 28907 ft 379 kts 350°
2026-05-09 16:04 38.83632 -80.08964 28935 ft 379 kts 350°
2026-05-09 16:04 38.88920 -80.08692 28904 ft 380 kts 350°
2026-05-09 16:05 38.94230 -80.08157 28931 ft 388 kts 356°
2026-05-09 16:05 38.99591 -80.06985 28931 ft 392 kts 358°
2026-05-09 16:06 39.04961 -80.05712 28919 ft 392 kts 358°
2026-05-09 16:06 39.10335 -80.04498 28929 ft 392 kts 358°
2026-05-09 16:07 39.15723 -80.03320 28929 ft 392 kts 357°
2026-05-09 16:07 39.21098 -80.02185 28926 ft 392 kts 358°
2026-05-09 16:08 39.26490 -80.01024 28929 ft 392 kts 358°
2026-05-09 16:08 39.31850 -79.99875 28925 ft 392 kts 358°
2026-05-09 16:09 39.37285 -79.98719 28927 ft 394 kts 358°
2026-05-09 16:09 39.42660 -79.97514 28936 ft 395 kts 359°
2026-05-09 16:10 39.48080 -79.96335 28944 ft 395 kts 358°
2026-05-09 16:10 39.53509 -79.95137 28939 ft 396 kts 359°
2026-05-09 16:11 39.58938 -79.93928 28935 ft 396 kts 359°
2026-05-09 16:11 39.64381 -79.92729 28932 ft 397 kts 359°
2026-05-09 16:12 39.69848 -79.91545 28936 ft 398 kts 359°
2026-05-09 16:12 39.75330 -79.90375 28936 ft 399 kts 359°
2026-05-09 16:13 39.80817 -79.89145 28931 ft 401 kts 360°
2026-05-09 16:13 39.86290 -79.87904 28925 ft 402 kts 360°
2026-05-09 16:14 39.91819 -79.86669 28929 ft 403 kts 360°
2026-05-09 16:14 39.97364 -79.85446 28927 ft 404 kts 360°
2026-05-09 16:15 40.02917 -79.84242 28928 ft 405 kts 360°
2026-05-09 16:15 40.08487 -79.83044 28943 ft 407 kts
2026-05-09 16:16 40.14079 -79.81773 28932 ft 408 kts
2026-05-09 16:16 40.19654 -79.80513 28889 ft 406 kts
2026-05-09 16:17 40.25200 -79.79286 28889 ft 408 kts
2026-05-09 16:17 40.30801 -79.78030 28888 ft 409 kts
2026-05-09 16:18 40.36421 -79.76787 28882 ft 410 kts
2026-05-09 16:18 40.42054 -79.75550 28892 ft 410 kts
2026-05-09 16:19 40.47686 -79.74248 28887 ft 412 kts
2026-05-09 16:19 40.53329 -79.72978 28899 ft 411 kts
2026-05-09 16:20 40.58986 -79.71709 28907 ft 413 kts
2026-05-09 16:20 40.64657 -79.70406 28899 ft 413 kts
2026-05-09 16:21 40.70313 -79.69118 28878 ft 412 kts
2026-05-09 16:21 40.75980 -79.67862 28874 ft 412 kts
2026-05-09 16:22 40.81607 -79.66582 28882 ft 413 kts
2026-05-09 16:22 40.87282 -79.65286 28876 ft 413 kts
2026-05-09 16:23 40.92943 -79.63996 28884 ft 414 kts
2026-05-09 16:23 40.98628 -79.62698 28874 ft 414 kts
2026-05-09 16:24 41.04305 -79.61408 28872 ft 414 kts
2026-05-09 16:24 41.09980 -79.60114 28866 ft 414 kts
2026-05-09 16:25 41.15674 -79.58815 28866 ft 415 kts
2026-05-09 16:25 41.21354 -79.57516 28858 ft 414 kts
2026-05-09 16:26 41.27047 -79.56214 28859 ft 414 kts
2026-05-09 16:26 41.32717 -79.54914 28862 ft 414 kts
2026-05-09 16:27 41.38402 -79.53612 28858 ft 414 kts
2026-05-09 16:27 41.44077 -79.52305 28844 ft 413 kts
2026-05-09 16:28 41.49741 -79.50999 28847 ft 413 kts
2026-05-09 16:28 41.55399 -79.49688 28849 ft 412 kts
2026-05-09 16:29 41.61045 -79.48375 28843 ft 412 kts
2026-05-09 16:29 41.66652 -79.47068 28836 ft 411 kts
2026-05-09 16:30 41.72277 -79.45750 28836 ft 411 kts
2026-05-09 16:30 41.77906 -79.44425 28837 ft 410 kts
2026-05-09 16:31 41.83526 -79.43095 28835 ft 410 kts
2026-05-09 16:31 41.89154 -79.41755 28833 ft 410 kts
2026-05-09 16:32 41.93807 -79.40669 28836 ft 408 kts
2026-05-09 16:32 42.00358 -79.39151 28838 ft 408 kts
2026-05-09 16:33 42.05940 -79.37816 28846 ft 407 kts
2026-05-09 16:33 42.11515 -79.36638 28844 ft 402 kts 357°
2026-05-09 16:34 42.17014 -79.36042 28850 ft 398 kts 354°
2026-05-09 16:34 42.22574 -79.35652 28848 ft 397 kts 353°
2026-05-09 16:35 42.28047 -79.35299 28831 ft 396 kts 354°
2026-05-09 16:35 42.33543 -79.34866 28821 ft 396 kts 354°
2026-05-09 16:36 42.44519 -79.33957 28821 ft 395 kts 354°
2026-05-09 16:37 42.50007 -79.33503 28799 ft 395 kts 354°
2026-05-09 16:37 42.52769 -79.33279 28455 ft 399 kts 354°
2026-05-09 16:37 42.55530 -79.33059 28044 ft 397 kts 354°
2026-05-09 16:38 42.58295 -79.32842 27638 ft 397 kts 354°
2026-05-09 16:38 42.61052 -79.32629 27238 ft 396 kts 354°
2026-05-09 16:38 42.63798 -79.32419 26857 ft 396 kts 354°
2026-05-09 16:38 42.66554 -79.32212 26476 ft 396 kts 354°
2026-05-09 16:39 42.69297 -79.32010 26093 ft 396 kts 354°
2026-05-09 16:39 42.72051 -79.31780 25714 ft 396 kts 354°
2026-05-09 16:39 42.74764 -79.31541 25343 ft 395 kts 354°
2026-05-09 16:39 42.77542 -79.31328 24968 ft 396 kts 354°
2026-05-09 16:40 42.80267 -79.31107 24611 ft 394 kts 355°
2026-05-09 16:40 42.82955 -79.30923 24249 ft 382 kts 352°
2026-05-09 16:42 43.00437 -79.32625 20522 ft 350 kts 347°
2026-05-09 16:42 43.02861 -79.32867 19969 ft 348 kts 348°
2026-05-09 16:42 43.05276 -79.33099 19408 ft 345 kts 348°
2026-05-09 16:42 43.07522 -79.33294 18875 ft 314 kts 348°
2026-05-09 16:43 43.09703 -79.33510 18337 ft 316 kts 347°
2026-05-09 16:43 43.11909 -79.33745 17758 ft 318 kts 348°
2026-05-09 16:43 43.14093 -79.33973 17174 ft 318 kts 348°
2026-05-09 16:43 43.16303 -79.34209 16628 ft 317 kts 348°
2026-05-09 16:44 43.18482 -79.34417 16116 ft 308 kts 349°
2026-05-09 16:44 43.20605 -79.34611 15632 ft 304 kts 349°
2026-05-09 16:44 43.22720 -79.34809 15167 ft 304 kts 349°
2026-05-09 16:44 43.24836 -79.35019 14714 ft 305 kts 349°
2026-05-09 16:45 43.26943 -79.35237 14271 ft 303 kts 349°
2026-05-09 16:45 43.28336 -79.35386 13980 ft 302 kts 349°
2026-05-09 16:45 43.31047 -79.36068 13366 ft 291 kts 334°
2026-05-09 16:45 43.32896 -79.37140 12881 ft 287 kts 330°
2026-05-09 16:46 43.34123 -79.37907 12554 ft 286 kts 330°
2026-05-09 16:46 43.35893 -79.39058 12112 ft 284 kts 329°
2026-05-09 16:46 43.37665 -79.40241 11718 ft 281 kts 329°
2026-05-09 16:46 43.39422 -79.41415 11324 ft 279 kts 329°
2026-05-09 16:47 43.41159 -79.42566 10934 ft 277 kts 329°
2026-05-09 16:47 43.42858 -79.43687 10574 ft 264 kts 330°
2026-05-09 16:47 43.44411 -79.44680 10258 ft 231 kts 330°
2026-05-09 16:47 43.45882 -79.45629 9925 ft 236 kts 330°
2026-05-09 16:48 43.47372 -79.46604 9601 ft 237 kts 330°
2026-05-09 16:48 43.48870 -79.47574 9275 ft 238 kts 330°
2026-05-09 16:48 43.50375 -79.48543 8941 ft 239 kts 330°
2026-05-09 16:48 43.51880 -79.49513 8616 ft 239 kts 330°
2026-05-09 16:49 43.53386 -79.50489 8301 ft 239 kts 330°
2026-05-09 16:49 43.54880 -79.51459 8063 ft 236 kts 331°
2026-05-09 16:49 43.56405 -79.52437 7365 ft 252 kts 331°
2026-05-09 16:50 43.59492 -79.53781 6852 ft 238 kts
2026-05-09 16:50 43.60992 -79.52743 6646 ft 248 kts 38°
2026-05-09 16:50 43.62254 -79.51107 6419 ft 249 kts 42°
2026-05-09 16:50 43.63458 -79.49387 6182 ft 249 kts 44°
2026-05-09 16:51 43.64616 -79.47626 5942 ft 248 kts 46°
2026-05-09 16:51 43.65768 -79.45848 5675 ft 248 kts 46°
2026-05-09 16:51 43.66916 -79.44086 5450 ft 245 kts 46°
2026-05-09 16:51 43.68058 -79.42344 5254 ft 244 kts 45°
2026-05-09 16:52 43.69203 -79.40632 5076 ft 243 kts 45°
2026-05-09 16:52 43.70357 -79.38919 4911 ft 242 kts 45°
2026-05-09 16:52 43.71506 -79.37230 4725 ft 241 kts 45°
2026-05-09 16:52 43.72647 -79.35537 4519 ft 240 kts 45°
2026-05-09 16:53 43.73794 -79.33866 4349 ft 239 kts 45°
2026-05-09 16:53 43.74937 -79.32204 4176 ft 238 kts 44°
2026-05-09 16:53 43.76063 -79.30567 4008 ft 237 kts 45°
2026-05-09 16:53 43.77189 -79.28899 3837 ft 236 kts 45°
2026-05-09 16:54 43.78314 -79.27244 3659 ft 234 kts 40°
2026-05-09 16:54 43.79729 -79.26288 3485 ft 226 kts
2026-05-09 16:54 43.81204 -79.26756 3347 ft 218 kts 326°
2026-05-09 16:54 43.82475 -79.27891 3190 ft 218 kts 323°
2026-05-09 16:55 43.83729 -79.29068 3080 ft 216 kts 322°
2026-05-09 16:55 43.84925 -79.30297 3032 ft 211 kts 311°
2026-05-09 16:55 43.85661 -79.31970 3028 ft 199 kts 290°
2026-05-09 16:55 43.85888 -79.33748 3020 ft 188 kts 255°
2026-05-09 16:56 43.85158 -79.35229 3064 ft 189 kts 222°
2026-05-09 16:56 43.84189 -79.36421 3075 ft 186 kts 225°
2026-05-09 16:56 43.83255 -79.37611 3112 ft 181 kts 224°
2026-05-09 16:56 43.82301 -79.38798 3086 ft 186 kts 224°
2026-05-09 16:57 43.81334 -79.39975 3082 ft 185 kts 223°
2026-05-09 16:57 43.80398 -79.41131 3032 ft 175 kts 224°
2026-05-09 16:57 43.79522 -79.42278 3022 ft 173 kts 226°
2026-05-09 16:57 43.78667 -79.43466 3011 ft 174 kts 227°
2026-05-09 16:58 43.77827 -79.44668 3026 ft 173 kts 227°
2026-05-09 16:58 43.77009 -79.45861 3052 ft 164 kts 229°
2026-05-09 16:58 43.76266 -79.46962 3008 ft 148 kts 229°
2026-05-09 16:58 43.75588 -79.47963 3013 ft 140 kts 229°
2026-05-09 16:59 43.74923 -79.48933 3015 ft 140 kts 229°
2026-05-09 16:59 43.74249 -79.49920 2947 ft 144 kts 230°
2026-05-09 16:59 43.73553 -79.50949 2599 ft 144 kts 229°
2026-05-09 16:59 43.72887 -79.51922 2233 ft 140 kts 229°
2026-05-09 17:00 43.72238 -79.52854 1967 ft 130 kts 226°
2026-05-09 17:00 43.71603 -79.53696 1709 ft 129 kts 226°
2026-05-09 17:00 43.71015 -79.54532 1600 ft 122 kts 228°
2026-05-09 17:00 43.70450 -79.55415 1402 ft 119 kts 231°
2026-05-09 17:01 43.69944 -79.56290 1261 ft 121 kts 231°
2026-05-09 17:01 43.69379 -79.57174 1131 ft 127 kts 223°
2026-05-09 17:01 43.68720 -79.58092 977 ft 137 kts 220°
2026-05-09 17:01 43.68034 -79.59037 776 ft 141 kts 223°
2026-05-09 17:02 43.67350 -79.60007 599 ft 140 kts 219°
2026-05-09 17:02 43.66716 -79.60924 582 ft 121 kts 223°
2026-05-09 17:02 43.66196 -79.61692 567 ft 95 kts 221°
2026-05-09 17:02 43.65985 -79.62137 562 ft 20 kts 265°
2026-05-09 17:03 43.66034 -79.62264 560 ft 10 kts 312°
2026-05-09 17:04 43.66317 -79.62449 563 ft 6 kts 40°
2026-05-09 17:05 43.66340 -79.62419 562 ft 4 kts 45°
2026-05-09 17:05 43.66355 -79.62398 559 ft 3 kts 41°
2026-05-09 17:05 43.66376 -79.62373 564 ft 5 kts 40°
2026-05-09 17:05 43.66408 -79.62335 564 ft 8 kts 40°
2026-05-09 17:06 43.66459 -79.62269 563 ft 11 kts 43°
2026-05-09 17:06 43.66494 -79.62188 563 ft 10 kts 97°
2026-05-09 17:06 43.66504 -79.62087 564 ft 11 kts 58°
2026-05-09 17:06 43.66554 -79.62017 562 ft 9 kts 44°
2026-05-09 17:07 43.66595 -79.61959 564 ft 8 kts 47°
2026-05-09 17:07 43.66619 -79.61921 569 ft 8 kts 47°
2026-05-09 17:07 43.66674 -79.61839 561 ft 10 kts 46°
2026-05-09 17:07 43.66724 -79.61769 566 ft 10 kts 46°
2026-05-09 17:08 43.66774 -79.61698 563 ft 10 kts 46°
2026-05-09 17:08 43.66877 -79.61548 563 ft 11 kts 44°
2026-05-09 17:08 43.66930 -79.61472 564 ft 10 kts 47°
2026-05-09 17:09 43.66974 -79.61407 567 ft 9 kts 46°
2026-05-09 17:09 43.67022 -79.61338 567 ft 11 kts 46°
2026-05-09 17:09 43.67079 -79.61254 563 ft 13 kts 46°
2026-05-09 17:09 43.67144 -79.61158 564 ft 14 kts 46°
2026-05-09 17:10 43.67213 -79.61057 557 ft 15 kts 46°
2026-05-09 17:10 43.67282 -79.60959 560 ft 13 kts 44°
2026-05-09 17:10 43.67343 -79.60871 557 ft 12 kts 48°
2026-05-09 17:10 43.67401 -79.60798 557 ft 10 kts 15°
2026-05-09 17:11 43.67448 -79.60818 567 ft 5 kts 344°
2026-05-09 17:11 43.67474 -79.60815 562 ft 4 kts 20°
2026-05-09 17:11 43.67498 -79.60784 560 ft 6 kts 46°
2026-05-09 17:11 43.67535 -79.60738 566 ft 8 kts 45°
2026-05-09 17:12 43.67581 -79.60670 564 ft 11 kts 48°
2026-05-09 17:12 43.67638 -79.60619 565 ft 9 kts 356°
2026-05-09 17:12 43.67686 -79.60665 568 ft 8 kts 326°
2026-05-09 17:12 43.67730 -79.60703 570 ft 7 kts 322°
2026-05-09 17:13 43.67757 -79.60732 565 ft 0 kts 340°
2026-05-09 17:13 43.67759 -79.60732 564 ft 1 kts 352°
2026-05-09 17:13 43.67768 -79.60726 566 ft 3 kts 30°
2026-05-09 17:13 43.67787 -79.60703 566 ft 3 kts 46°
2026-05-09 17:14 43.67801 -79.60682 566 ft 0 kts 47°